Raleigh, IL

11:38 PM CST on January 20, 2017 (GMT -0600)
Harrisburg

Weather History for KHSB - December, 2013

Change the Weather History Date:

Tuesday, December 17, 2013

  Actual Average (KMWA) Record (KMWA)
Temperature  
Mean Temperature 33 °F -  
Max Temperature 40 °F 41 °F 67 °F (1984)
Min Temperature 26 °F 23 °F -9 °F (1989)
Degree Days  
Heating Degree Days 32    
Moisture  
Dew Point 29 °F    
Average Humidity 89    
Maximum Humidity 100    
Minimum Humidity 66    
Precipitation  
Precipitation 0.00 in - - ()
Sea Level Pressure  
Sea Level Pressure 30.20 in    
Wind  
Wind Speed 6 mph (WNW)    
Max Wind Speed 14 mph    
Max Gust Speed 17 mph    
Visibility 6 miles    
Events      
Averages and records for this station are not official NWS values.
T = Trace of Precipitation, MM = Missing Value Source: NWS Daily Summary

Daily Weather History Graph

Daily Weather History Graph

Search for Another Location

Airport or City:

Trip Planner

Search our weather history database for the weather conditions in past years. The results will help you decide how hot, cold, wet, or windy it might be!

Date:

Astronomy

Dec. 17, 2013 Rise Set
Actual Time 7:03 AM CST 4:37 PM CST
Civil Twilight 6:34 AM CST 5:06 PM CST
Nautical Twilight 6:01 AM CST 5:39 PM CST
Astronomical Twilight 5:29 AM CST 6:11 PM CST
Moon 5:15 PM CST (12/17) 7:01 AM CST (12/17)
Length of Visible Light 10h 32m
Length of Day
9h 33m
Full, 100% of the Moon is Illuminated
Dec 17
Full
Dec 25
Last Quarter
Jan 1
New
Jan 7
First Quarter
Jan 15
Full

Hourly Weather History & Observations

Time (CST) Temp. Windchill Dew Point Humidity Pressure Visibility Wind Dir Wind Speed Gust Speed Precip Events Conditions
12:15 AM 36.1 °F 31.4 °F 33.8 °F 91% 30.10 in 10.0 mi NW 5.8 mph - N/A   Clear
12:35 AM 34.7 °F 30.6 °F 32.0 °F 90% 30.10 in 7.0 mi West 4.6 mph - N/A   Clear
12:55 AM 33.8 °F 29.6 °F 31.1 °F 90% 30.11 in 7.0 mi West 4.6 mph - N/A   Clear
1:15 AM 32.9 °F 27.5 °F 30.0 °F 89% 30.11 in 7.0 mi WNW 5.8 mph - N/A   Clear
1:35 AM 32.5 °F 27.1 °F 29.1 °F 87% 30.11 in 5.0 mi WNW 5.8 mph - N/A   Clear
1:55 AM 32.0 °F 27.5 °F 29.1 °F 89% 30.11 in 5.0 mi WNW 4.6 mph - N/A   Clear
2:15 AM 32.0 °F 26.4 °F 29.1 °F 89% 30.13 in 5.0 mi NW 5.8 mph - N/A   Clear
2:35 AM 31.1 °F 26.4 °F 29.1 °F 92% 30.13 in 5.0 mi WNW 4.6 mph - N/A   Clear
2:55 AM 31.5 °F 26.8 °F 29.3 °F 92% 30.15 in 4.0 mi NW 4.6 mph - N/A   Scattered Clouds
3:15 AM 31.1 °F 26.4 °F 28.8 °F 91% 30.15 in 5.0 mi NW 4.6 mph - N/A   Scattered Clouds
3:35 AM 30.9 °F 24.3 °F 28.4 °F 90% 30.15 in 5.0 mi NNW 6.9 mph - N/A   Overcast
3:55 AM 30.2 °F 23.4 °F 28.2 °F 92% 30.16 in 5.0 mi NNW 6.9 mph - N/A   Overcast
4:15 AM 29.5 °F 22.5 °F 28.0 °F 94% 30.17 in 4.0 mi NW 6.9 mph - N/A   Overcast
4:35 AM 29.1 °F 22.1 °F 27.9 °F 95% 30.18 in 4.0 mi NW 6.9 mph - N/A   Overcast
4:55 AM 28.8 °F 22.6 °F 27.7 °F 96% 30.18 in 4.0 mi NW 5.8 mph - N/A   Overcast
5:15 AM 28.6 °F 24.8 °F 27.7 °F 96% 30.15 in 4.0 mi SW 3.5 mph - N/A   Overcast
5:35 AM 28.4 °F 23.3 °F 27.9 °F 98% 30.17 in 3.0 mi WNW 4.6 mph - N/A   Overcast
5:55 AM 28.4 °F - 28.2 °F 99% 30.16 in 3.0 mi Calm Calm - N/A   Overcast
6:15 AM 28.4 °F 24.6 °F 28.4 °F 100% 30.17 in 3.0 mi NW 3.5 mph - N/A   Overcast
6:35 AM 28.4 °F 24.6 °F 28.2 °F 99% 30.17 in 3.0 mi North 3.5 mph - N/A   Overcast
6:55 AM 28.4 °F - 28.2 °F 99% 30.16 in 2.0 mi Calm Calm - N/A   Mostly Cloudy
7:15 AM 28.4 °F 24.6 °F 28.2 °F 99% 30.17 in 2.0 mi NNW 3.5 mph - N/A   Overcast
7:35 AM 28.4 °F - 28.0 °F 99% 30.16 in 2.5 mi Calm Calm - N/A   Mostly Cloudy
7:55 AM 28.9 °F 25.2 °F 28.4 °F 98% 30.17 in 2.0 mi West 3.5 mph - N/A   Overcast
8:15 AM 29.1 °F 22.1 °F 28.6 °F 98% 30.19 in 2.5 mi WNW 6.9 mph - N/A   Overcast
8:35 AM 29.3 °F 21.5 °F 28.8 °F 98% 30.20 in 2.5 mi West 8.1 mph - N/A   Overcast
8:55 AM 29.3 °F 22.3 °F 28.8 °F 98% 30.21 in 2.5 mi WNW 6.9 mph - N/A   Overcast
9:15 AM 29.3 °F 21.5 °F 28.8 °F 98% 30.21 in 2.0 mi WNW 8.1 mph - N/A   Overcast
9:35 AM 29.1 °F 21.3 °F 28.8 °F 99% 30.21 in 2.0 mi West 8.1 mph - N/A   Overcast
9:55 AM 29.1 °F 21.3 °F 28.4 °F 97% 30.22 in 3.0 mi West 8.1 mph - N/A   Overcast
10:15 AM 29.8 °F 22.2 °F 29.3 °F 98% 30.22 in 2.0 mi West 8.1 mph - N/A   Overcast
10:35 AM 30.0 °F 22.4 °F 29.3 °F 97% 30.22 in 2.5 mi WNW 8.1 mph - N/A   Overcast
10:55 AM 30.2 °F 21.9 °F 29.3 °F 96% 30.22 in 2.5 mi West 9.2 mph - N/A   Overcast
11:15 AM 30.7 °F 23.3 °F 29.7 °F 96% 30.21 in 2.5 mi WNW 8.1 mph - N/A   Overcast
11:35 AM 31.3 °F 23.3 °F 30.0 °F 95% 30.20 in 3.0 mi West 9.2 mph - N/A   Overcast
11:55 AM 32.0 °F 24.2 °F 30.0 °F 92% 30.19 in 3.0 mi West 9.2 mph - N/A   Mostly Cloudy
12:15 PM 32.4 °F 24.0 °F 30.2 °F 92% 30.19 in 4.0 mi West 10.4 mph - N/A   Scattered Clouds
12:35 PM 33.8 °F 27.0 °F 30.2 °F 87% 30.19 in 5.0 mi West 8.1 mph - N/A   Clear
12:55 PM 35.1 °F 29.3 °F 30.4 °F 83% 30.18 in 5.0 mi West 6.9 mph - N/A   Haze
1:15 PM 36.1 °F 30.6 °F 31.1 °F 82% 30.19 in 5.0 mi West 6.9 mph - N/A   Haze
1:35 PM 37.4 °F 30.8 °F 31.1 °F 78% 30.19 in 7.0 mi WNW 9.2 mph - N/A   Scattered Clouds
1:55 PM 37.9 °F 30.5 °F 30.7 °F 75% 30.19 in 7.0 mi WNW 11.5 mph - N/A   Scattered Clouds
2:15 PM 38.5 °F 30.7 °F 30.9 °F 74% 30.19 in 7.0 mi West 12.7 mph - N/A   Clear
2:35 PM 38.8 °F 32.6 °F 30.4 °F 72% 30.19 in 7.0 mi West 9.2 mph - N/A   Clear
2:55 PM 39.6 °F 33.5 °F 30.6 °F 70% 30.20 in 10.0 mi West 9.2 mph - N/A   Clear
3:15 PM 39.9 °F 34.5 °F 30.6 °F 69% 30.21 in 7.0 mi West 8.1 mph - N/A   Clear
3:35 PM 40.1 °F 34.1 °F 29.7 °F 66% 30.22 in 10.0 mi WNW 9.2 mph 16.1 mph N/A   Clear
3:55 PM 39.6 °F 31.7 °F 29.1 °F 66% 30.22 in 10.0 mi NW 13.8 mph 17.3 mph N/A   Clear
4:15 PM 38.7 °F 33.6 °F 29.1 °F 69% 30.23 in 10.0 mi WNW 6.9 mph - N/A   Clear
4:35 PM 36.3 °F 30.8 °F 29.1 °F 75% 30.22 in 10.0 mi West 6.9 mph - N/A   Clear
4:55 PM 36.5 °F 31.8 °F 29.1 °F 75% 30.22 in 10.0 mi WSW 5.8 mph - N/A   Clear
5:15 PM 35.8 °F 30.9 °F 28.9 °F 76% 30.22 in 10.0 mi SW 5.8 mph - N/A   Clear
5:35 PM 33.4 °F 29.1 °F 28.9 °F 84% 30.22 in 10.0 mi WSW 4.6 mph - N/A   Clear
5:55 PM 32.2 °F 25.8 °F 28.0 °F 85% 30.23 in 10.0 mi West 6.9 mph - N/A   Clear
6:15 PM 32.5 °F 25.5 °F 28.6 °F 85% 30.24 in 10.0 mi West 8.1 mph - N/A   Clear
6:35 PM 32.7 °F 27.3 °F 28.0 °F 83% 30.25 in 10.0 mi West 5.8 mph - N/A   Clear
6:55 PM 32.4 °F 29.1 °F 27.9 °F 83% 30.26 in 10.0 mi WNW 3.5 mph - N/A   Clear
7:15 PM 32.0 °F 28.7 °F 26.8 °F 81% 30.27 in 10.0 mi WNW 3.5 mph - N/A   Clear
7:35 PM 30.6 °F 27.1 °F 27.0 °F 86% 30.27 in 10.0 mi WNW 3.5 mph - N/A   Clear
7:55 PM 32.4 °F 29.1 °F 27.7 °F 83% 30.27 in 10.0 mi WNW 3.5 mph - N/A   Clear
8:15 PM 29.8 °F 26.3 °F 27.1 °F 90% 30.27 in 10.0 mi West 3.5 mph - N/A   Clear
8:35 PM 30.7 °F 24.9 °F 27.7 °F 88% 30.28 in 10.0 mi West 5.8 mph - N/A   Clear
8:55 PM 30.9 °F 26.2 °F 27.5 °F 87% 30.28 in 10.0 mi WSW 4.6 mph - N/A   Clear
9:15 PM 29.5 °F 25.9 °F 26.6 °F 89% 30.28 in 10.0 mi WSW 3.5 mph - N/A   Clear
9:35 PM 29.1 °F - 27.1 °F 92% 30.28 in 10.0 mi Calm Calm - N/A   Clear
9:55 PM 29.5 °F - 27.5 °F 92% 30.28 in 10.0 mi Calm Calm - N/A   Clear
10:15 PM 28.8 °F - 27.5 °F 95% 30.29 in 10.0 mi Calm Calm - N/A   Clear
10:35 PM 28.0 °F - 27.1 °F 96% 30.29 in 10.0 mi Calm Calm - N/A   Clear
10:55 PM 27.3 °F - 26.6 °F 97% 30.29 in 10.0 mi Calm Calm - N/A   Clear
11:15 PM 27.3 °F 23.4 °F 26.2 °F 96% 30.29 in 10.0 mi West 3.5 mph - N/A   Clear
11:35 PM 26.2 °F 19.6 °F 25.2 °F 96% 30.29 in 10.0 mi West 5.8 mph - N/A   Clear
11:55 PM 29.3 °F 23.2 °F 24.4 °F 82% 30.30 in 10.0 mi WNW 5.8 mph - N/A   Clear